This demonstration page uses our WeatherBlox Daily Observations layout. Learn more.

Left ArrowRight Arrow

41.12389, -100.76542

Hourly Observations for September 9, 2016

Temp ( °F °C ) Dew Point ( °F °C ) Humidity (%) Winds ( mph kmh ) Pressure ( in mb ) Visibility ( mi km ) Precip ( " mm )
12:18 am 00:18 Cloudy with Mist and Fog 72 22 70 21 94 94 SSE 9 15 29.74 1007 4 6 0.00 0.00
12:53 am 00:53 Cloudy with Mist and Fog 71 21.7 70 21.1 96 96 S 6 9 29.79 1009 4 6 0.00 0.00
1:53 am 01:53 Cloudy with Mist and Fog 72 22.2 70 21.1 94 94 SSW 3 6 29.78 1008 4 6 0.00 0.00
2:22 am 02:22 Cloudy with Mist and Fog 72 22.2 70 21.1 94 94 S 7 11 29.71 1006 3 4 0.00 0.00
2:40 am 02:40 Cloudy with Mist and Fog 72 22 70 21 94 94 S 7 11 29.74 1007 3 5 0.00 0.00
2:53 am 02:53 Cloudy with Mist and Fog 72 22.2 70 21.1 94 94 S 6 9 29.77 1008 5 8 0.00 0.00
2:56 am 02:56 Cloudy with Mist and Fog 72 22.2 70 21.1 94 94 S 5 7 29.74 1007 5 8 0.00 0.00
3:12 am 03:12 Cloudy with Mist and Fog 72 22 70 21 94 94 S 7 11 29.74 1007 6 10 0.00 0.00
3:40 am 03:40 Mostly Cloudy 72 22 70 21 94 94 SSW 8 13 29.71 1006 7 11 0.00 0.00
3:50 am 03:50 Partly Cloudy 72 22 70 21 94 94 SSW 8 13 29.71 1006 7 11 0.00 0.00
3:53 am 03:53 Mostly Clear 71 21.7 69 20.6 94 94 S 9 15 29.76 1008 7 11 0.00 0.00
4:12 am 04:12 Partly Cloudy with Mist and Fog 72 22 70 21 94 94 S 6 9 29.71 1006 6 10 0.00 0.00
4:21 am 04:21 Mostly Cloudy with Mist and Fog 71 21.7 69 20.6 94 94 S 8 13 29.71 1006 6 10 0.00 0.00
4:53 am 04:53 Cloudy 71 21.7 68 20 90 90 S 7 11 29.76 1008 8 13 0.00 0.00
5:53 am 05:53 Mostly Cloudy with Mist and Fog 71 21.7 69 20.6 94 94 NNW 5 7 29.79 1009 6 10 0.00 0.00
6:45 am 06:45 Cloudy 72 22.2 69 20.6 91 91 Calm 29.74 1007 7 11 0.00 0.00
6:53 am 06:53 Cloudy with Mist and Fog 72 22.2 68 20 87 87 Calm 29.79 1009 6 10 0.00 0.00
7:07 am 07:07 Cloudy with Mist and Fog 71 21.7 69 20.6 94 94 WNW 5 7 29.74 1007 5 8 0.00 0.00
7:53 am 07:53 Cloudy with Mist and Fog 71 21.7 69 20.6 94 94 Calm 29.83 1010 4 6 0.00 0.00
8:00 am 08:00 Cloudy with Mist and Fog 72 22 70 21 94 94 Calm 29.77 1008 4 6 0.00 0.00
8:28 am 08:28 Cloudy 64 18 61 16 88 88 N 15 24 29.85 1011 7 11 0.00 0.00
8:51 am 08:51 Cloudy with Light Rain 63 17 59 15 88 88 N 14 22 29.85 1011 7 11 0.00 0.03
8:53 am 08:53 Cloudy with Rain 63 17.2 59 15 87 87 N 16 26 29.88 1012 7 11 0.01 0.25
9:53 am 09:53 Cloudy 65 18.3 57 13.9 76 76 NNE 20 31 29.91 1013 10 16 0.00 0.03
10:06 am 10:06 Cloudy 64 18 54 12 68 68 N 24 39 29.88 1012 10 16 0.00 0.00
10:53 am 10:53 Cloudy 69 20.6 50 10 51 51 N 20 31 29.93 1013 10 16 0.00 0.03
11:53 am 11:53 Cloudy 69 20.6 46 7.8 44 44 N 22 35 29.95 1014 10 16 0.00 0.00
12:53 pm 12:53 Mostly Cloudy 74 23.3 45 7.2 36 36 N 22 35 29.96 1015 10 16 0.00 0.00
1:53 pm 13:53 Mostly Cloudy 72 22.2 43 6.1 35 35 N 23 37 30.00 1016 10 16 0.00 0.00
2:53 pm 14:53 Sunny 74 23.3 43 6.1 33 33 N 24 39 30.00 1016 10 16 0.00 0.00
3:53 pm 15:53 Sunny 74 23.3 43 6.1 33 33 N 22 35 30.02 1017 10 16 0.00 0.00
4:53 pm 16:53 Mostly Sunny 73 22.8 44 6.7 35 35 N 16 26 30.06 1018 10 16 0.00 0.00
5:53 pm 17:53 Mostly Sunny 69 20.6 42 5.6 38 38 N 20 31 30.11 1020 10 16 0.00 0.00
6:53 pm 18:53 Sunny 65 18.3 39 3.9 39 39 NNW 14 22 30.14 1021 10 16 0.00 0.00
7:53 pm 19:53 Sunny 59 15 43 6.1 56 56 NW 6 9 30.16 1021 10 16 0.00 0.00
8:53 pm 20:53 Clear 53 11.7 42 5.6 66 66 NW 6 9 30.20 1023 10 16 0.00 0.00
9:53 pm 21:53 Clear 49 9.4 41 5 74 74 NW 7 11 30.22 1024 10 16 0.00 0.00
10:53 pm 22:53 Clear 48 8.9 41 5 77 77 NW 8 13 30.22 1023 10 16 0.00 0.00
11:53 pm 23:53 Clear 48 8.9 41 5 77 77 NNW 3 6 30.24 1024 10 16 0.00 0.00

Powered by AerisWeather